#Datum;Uhrzeit;WR;Pac;DaySum;Status;WR;Pac;DaySum;Status;Pdc1;Udc;Temp;WR;Pac;DaySum;Status;Pdc1;Udc;Temp;WR;Pac;DaySum;Status;Pdc1;Udc;Temp;WR;Pac;DaySum;Status;Pdc1;Pdc2;Udc1;Udc2;Temp;WR;Pac;DaySum;Status;Pdc1;Pdc2;Udc1;Udc2;Temp;WR;Pac;DaySum;Status;Pdc1;Udc;Temp;WR;Pac;DaySum;Status;Pdc1;Udc;Temp;WR;Pac;DaySum;Status;Pdc1;Udc;Temp
27.11.20;23:55:00;1;446;17102;0;2;0;1624;0;0;0;0;3;0;940;0;0;0;0;4;0;1267;0;0;0;0;5;0;0;0;0;0;0;0;0;6;0;2630;0;0;0;0;0;0;7;0;1567;0;0;0;0;8;0;1582;0;0;0;0;9;0;803;0;0;0;0
27.11.20;23:50:00;1;423;17065;0;2;0;1624;0;0;0;0;3;0;940;0;0;0;0;4;0;1267;0;0;0;0;5;0;0;0;0;0;0;0;0;6;0;2630;0;0;0;0;0;0;7;0;1567;0;0;0;0;8;0;1582;0;0;0;0;9;0;803;0;0;0;0
27.11.20;23:45:00;1;426;17030;0;2;0;1624;0;0;0;0;3;0;940;0;0;0;0;4;0;1267;0;0;0;0;5;0;0;0;0;0;0;0;0;6;0;2630;0;0;0;0;0;0;7;0;1567;0;0;0;0;8;0;1582;0;0;0;0;9;0;803;0;0;0;0
27.11.20;23:40:00;1;430;16994;0;2;0;1624;0;0;0;0;3;0;940;0;0;0;0;4;0;1267;0;0;0;0;5;0;0;0;0;0;0;0;0;6;0;2630;0;0;0;0;0;0;7;0;1567;0;0;0;0;8;0;1582;0;0;0;0;9;0;803;0;0;0;0
27.11.20;23:35:00;1;601;16957;0;2;0;1624;0;0;0;0;3;0;940;0;0;0;0;4;0;1267;0;0;0;0;5;0;0;0;0;0;0;0;0;6;0;2630;0;0;0;0;0;0;7;0;1567;0;0;0;0;8;0;1582;0;0;0;0;9;0;803;0;0;0;0
27.11.20;23:30:00;1;550;16908;0;2;0;1624;0;0;0;0;3;0;940;0;0;0;0;4;0;1267;0;0;0;0;5;0;0;0;0;0;0;0;0;6;0;2630;0;0;0;0;0;0;7;0;1567;0;0;0;0;8;0;1582;0;0;0;0;9;0;803;0;0;0;0
27.11.20;23:25:00;1;603;16861;0;2;0;1624;0;0;0;0;3;0;940;0;0;0;0;4;0;1267;0;0;0;0;5;0;0;0;0;0;0;0;0;6;0;2630;0;0;0;0;0;0;7;0;1567;0;0;0;0;8;0;1582;0;0;0;0;9;0;803;0;0;0;0
27.11.20;23:20:00;1;542;16812;0;2;0;1624;0;0;0;0;3;0;940;0;0;0;0;4;0;1267;0;0;0;0;5;0;0;0;0;0;0;0;0;6;0;2630;0;0;0;0;0;0;7;0;1567;0;0;0;0;8;0;1582;0;0;0;0;9;0;803;0;0;0;0
27.11.20;23:15:00;1;590;16767;0;2;0;1624;0;0;0;0;3;0;940;0;0;0;0;4;0;1267;0;0;0;0;5;0;0;0;0;0;0;0;0;6;0;2630;0;0;0;0;0;0;7;0;1567;0;0;0;0;8;0;1582;0;0;0;0;9;0;803;0;0;0;0
27.11.20;23:10:00;1;614;16718;0;2;0;1624;0;0;0;0;3;0;940;0;0;0;0;4;0;1267;0;0;0;0;5;0;0;0;0;0;0;0;0;6;0;2630;0;0;0;0;0;0;7;0;1567;0;0;0;0;8;0;1582;0;0;0;0;9;0;803;0;0;0;0
27.11.20;23:05:00;1;644;16667;0;2;0;1624;0;0;0;0;3;0;940;0;0;0;0;4;0;1267;0;0;0;0;5;0;0;0;0;0;0;0;0;6;0;2630;0;0;0;0;0;0;7;0;1567;0;0;0;0;8;0;1582;0;0;0;0;9;0;803;0;0;0;0
27.11.20;23:00:00;1;528;16613;0;2;0;1624;0;0;0;0;3;0;940;0;0;0;0;4;0;1267;0;0;0;0;5;0;0;0;0;0;0;0;0;6;0;2630;0;0;0;0;0;0;7;0;1567;0;0;0;0;8;0;1582;0;0;0;0;9;0;803;0;0;0;0
27.11.20;22:55:00;1;941;16570;0;2;0;1624;0;0;0;0;3;0;940;0;0;0;0;4;0;1267;0;0;0;0;5;0;0;0;0;0;0;0;0;6;0;2630;2;0;0;0;0;0;7;0;1567;0;0;0;0;8;0;1582;0;0;0;0;9;0;803;0;0;0;0
27.11.20;22:50:00;1;571;16494;0;2;0;1624;0;0;0;0;3;0;940;0;0;0;0;4;0;1267;0;0;0;0;5;0;0;0;0;0;0;0;0;6;0;2630;2;0;0;0;0;0;7;0;1567;0;0;0;0;8;0;1582;0;0;0;0;9;0;803;0;0;0;0
27.11.20;22:45:00;1;506;16447;0;2;0;1624;0;0;0;0;3;0;940;0;0;0;0;4;0;1267;0;0;0;0;5;0;0;0;0;0;0;0;0;6;0;2630;2;0;0;0;0;0;7;0;1567;0;0;0;0;8;0;1582;0;0;0;0;9;0;803;0;0;0;0
27.11.20;22:40:00;1;509;16404;0;2;0;1624;0;0;0;0;3;0;940;0;0;0;0;4;0;1267;0;0;0;0;5;0;0;0;0;0;0;0;0;6;0;2630;2;0;0;0;0;0;7;0;1567;0;0;0;0;8;0;1582;0;0;0;0;9;0;803;0;0;0;0
27.11.20;22:35:00;1;556;16361;0;2;0;1624;0;0;0;0;3;0;940;0;0;0;0;4;0;1267;0;0;0;0;5;0;0;0;0;0;0;0;0;6;0;2630;2;0;0;0;0;0;7;0;1567;0;0;0;0;8;0;1582;0;0;0;0;9;0;803;0;0;0;0
27.11.20;22:30:00;1;506;16315;0;2;0;1624;0;0;0;0;3;0;940;0;0;0;0;4;0;1267;0;0;0;0;5;0;0;0;0;0;0;0;0;6;0;2630;2;0;0;0;0;0;7;0;1567;0;0;0;0;8;0;1582;0;0;0;0;9;0;803;0;0;0;0
27.11.20;22:25:00;1;513;16272;0;2;0;1624;0;0;0;0;3;0;940;0;0;0;0;4;0;1267;0;0;0;0;5;0;0;0;0;0;0;0;0;6;0;2630;2;0;0;0;0;0;7;0;1567;0;0;0;0;8;0;1582;0;0;0;0;9;0;803;0;0;0;0
27.11.20;22:20:00;1;488;16229;0;2;0;1624;0;0;0;0;3;0;940;0;0;0;0;4;0;1267;0;0;0;0;5;0;0;0;0;0;0;0;0;6;0;2630;2;0;0;0;0;0;7;0;1567;0;0;0;0;8;0;1582;0;0;0;0;9;0;803;0;0;0;0
27.11.20;22:15:00;1;413;16189;0;2;0;1624;0;0;0;0;3;0;940;0;0;0;0;4;0;1267;0;0;0;0;5;0;0;0;0;0;0;0;0;6;0;2630;2;0;0;0;0;0;7;0;1567;0;0;0;0;8;0;1582;0;0;0;0;9;0;803;0;0;0;0
27.11.20;22:10:00;1;407;16155;0;2;0;1624;0;0;0;0;3;0;940;0;0;0;0;4;0;1267;0;0;0;0;5;0;0;0;0;0;0;0;0;6;0;2630;2;0;0;0;0;0;7;0;1567;0;0;0;0;8;0;1582;0;0;0;0;9;0;803;0;0;0;0
27.11.20;22:05:00;1;373;16121;0;2;0;1624;0;0;0;0;3;0;940;0;0;0;0;4;0;1267;0;0;0;0;5;0;0;0;0;0;0;0;0;6;0;2630;2;0;0;0;0;0;7;0;1567;0;0;0;0;8;0;1582;0;0;0;0;9;0;803;0;0;0;0
27.11.20;22:00:00;1;320;16091;0;2;0;1624;0;0;0;0;3;0;940;0;0;0;0;4;0;1267;0;0;0;0;5;0;0;0;0;0;0;0;0;6;0;2630;2;0;0;0;0;0;7;0;1567;0;0;0;0;8;0;1582;0;0;0;0;9;0;803;0;0;0;0
27.11.20;21:55:00;1;287;16064;0;2;0;1624;0;0;0;0;3;0;940;0;0;0;0;4;0;1267;0;0;0;0;5;0;0;0;0;0;0;0;0;6;0;2630;2;0;0;0;0;0;7;0;1567;0;0;0;0;8;0;1582;0;0;0;0;9;0;803;0;0;0;0
27.11.20;21:50:00;1;326;16039;0;2;0;1624;0;0;0;0;3;0;940;0;0;0;0;4;0;1267;0;0;0;0;5;0;0;0;0;0;0;0;0;6;0;2630;2;0;0;0;0;0;7;0;1567;0;0;0;0;8;0;1582;0;0;0;0;9;0;803;0;0;0;0
27.11.20;21:45:00;1;338;16012;0;2;0;1624;0;0;0;0;3;0;940;0;0;0;0;4;0;1267;0;0;0;0;5;0;0;0;0;0;0;0;0;6;0;2630;2;0;0;0;0;0;7;0;1567;0;0;0;0;8;0;1582;0;0;0;0;9;0;803;0;0;0;0
27.11.20;21:40:00;1;338;15984;0;2;0;1624;0;0;0;0;3;0;940;0;0;0;0;4;0;1267;0;0;0;0;5;0;0;0;0;0;0;0;0;6;0;2630;2;0;0;0;0;0;7;0;1567;0;0;0;0;8;0;1582;0;0;0;0;9;0;803;0;0;0;0
27.11.20;21:35:00;1;396;15955;0;2;0;1624;0;0;0;0;3;0;940;0;0;0;0;4;0;1267;0;0;0;0;5;0;0;0;0;0;0;0;0;6;0;2630;2;0;0;0;0;0;7;0;1567;0;0;0;0;8;0;1582;0;0;0;0;9;0;803;0;0;0;0
27.11.20;21:30:00;1;293;15923;0;2;0;1624;0;0;0;0;3;0;940;0;0;0;0;4;0;1267;0;0;0;0;5;0;0;0;0;0;0;0;0;6;0;2630;2;0;0;0;0;0;7;0;1567;0;0;0;0;8;0;1582;0;0;0;0;9;0;803;0;0;0;0
27.11.20;21:25:00;1;277;15899;0;2;0;1624;0;0;0;0;3;0;940;0;0;0;0;4;0;1267;0;0;0;0;5;0;0;0;0;0;0;0;0;6;0;2630;2;0;0;0;0;0;7;0;1567;0;0;0;0;8;0;1582;0;0;0;0;9;0;803;0;0;0;0
27.11.20;21:20:00;1;277;15876;0;2;0;1624;0;0;0;0;3;0;940;0;0;0;0;4;0;1267;0;0;0;0;5;0;0;0;0;0;0;0;0;6;0;2630;2;0;0;0;0;0;7;0;1567;0;0;0;0;8;0;1582;0;0;0;0;9;0;803;0;0;0;0
27.11.20;21:15:00;1;277;15853;0;2;0;1624;0;0;0;0;3;0;940;0;0;0;0;4;0;1267;0;0;0;0;5;0;0;0;0;0;0;0;0;6;0;2630;2;0;0;0;0;0;7;0;1567;0;0;0;0;8;0;1582;0;0;0;0;9;0;803;0;0;0;0
27.11.20;21:10:00;1;318;15829;0;2;0;1624;0;0;0;0;3;0;940;0;0;0;0;4;0;1267;0;0;0;0;5;0;0;0;0;0;0;0;0;6;0;2630;2;0;0;0;0;0;7;0;1567;0;0;0;0;8;0;1582;0;0;0;0;9;0;803;0;0;0;0
27.11.20;21:05:00;1;380;15802;0;2;0;1624;0;0;0;0;3;0;940;0;0;0;0;4;0;1267;0;0;0;0;5;0;0;0;0;0;0;0;0;6;0;2630;2;0;0;0;0;0;7;0;1567;0;0;0;0;8;0;1582;0;0;0;0;9;0;803;0;0;0;0
27.11.20;21:00:00;1;319;15771;0;2;0;1624;0;0;0;0;3;0;940;0;0;0;0;4;0;1267;0;0;0;0;5;0;0;0;0;0;0;0;0;6;0;2630;2;0;0;0;0;0;7;0;1567;0;0;0;0;8;0;1582;0;0;0;0;9;0;803;0;0;0;0
27.11.20;20:55:00;1;322;15744;0;2;0;1624;0;0;0;0;3;0;940;0;0;0;0;4;0;1267;0;0;0;0;5;0;0;0;0;0;0;0;0;6;0;2630;2;0;0;0;0;0;7;0;1567;0;0;0;0;8;0;1582;0;0;0;0;9;0;803;0;0;0;0
27.11.20;20:50:00;1;349;15718;0;2;0;1624;0;0;0;0;3;0;940;0;0;0;0;4;0;1267;0;0;0;0;5;0;0;0;0;0;0;0;0;6;0;2630;2;0;0;0;0;0;7;0;1567;0;0;0;0;8;0;1582;0;0;0;0;9;0;803;0;0;0;0
27.11.20;20:45:00;1;276;15693;0;2;0;1624;0;0;0;0;3;0;940;0;0;0;0;4;0;1267;0;0;0;0;5;0;0;0;0;0;0;0;0;6;0;2630;2;0;0;0;0;0;7;0;1567;0;0;0;0;8;0;1582;0;0;0;0;9;0;803;0;0;0;0
27.11.20;20:40:00;1;292;15670;0;2;0;1624;0;0;0;0;3;0;940;0;0;0;0;4;0;1267;0;0;0;0;5;0;0;0;0;0;0;0;0;6;0;2630;2;0;0;0;0;0;7;0;1567;0;0;0;0;8;0;1582;0;0;0;0;9;0;803;0;0;0;0
27.11.20;20:35:00;1;390;15645;0;2;0;1624;0;0;0;0;3;0;940;0;0;0;0;4;0;1267;0;0;0;0;5;0;0;0;0;0;0;0;0;6;0;2630;2;0;0;0;0;0;7;0;1567;0;0;0;0;8;0;1582;0;0;0;0;9;0;803;0;0;0;0
27.11.20;20:30:00;1;292;15613;0;2;0;1624;0;0;0;0;3;0;940;0;0;0;0;4;0;1267;0;0;0;0;5;0;0;0;0;0;0;0;0;6;0;2630;2;0;0;0;0;0;7;0;1567;0;0;0;0;8;0;1582;0;0;0;0;9;0;803;0;0;0;0
27.11.20;20:25:00;1;282;15589;0;2;0;1624;0;0;0;0;3;0;940;0;0;0;0;4;0;1267;0;0;0;0;5;0;0;0;0;0;0;0;0;6;0;2630;2;0;0;0;0;0;7;0;1567;0;0;0;0;8;0;1582;0;0;0;0;9;0;803;0;0;0;0
27.11.20;20:20:00;1;334;15565;0;2;0;1624;0;0;0;0;3;0;940;0;0;0;0;4;0;1267;0;0;0;0;5;0;0;0;0;0;0;0;0;6;0;2630;2;0;0;0;0;0;7;0;1567;0;0;0;0;8;0;1582;0;0;0;0;9;0;803;0;0;0;0
27.11.20;20:15:00;1;332;15537;0;2;0;1624;0;0;0;0;3;0;940;0;0;0;0;4;0;1267;0;0;0;0;5;0;0;0;0;0;0;0;0;6;0;2630;2;0;0;0;0;0;7;0;1567;0;0;0;0;8;0;1582;0;0;0;0;9;0;803;0;0;0;0
27.11.20;20:10:00;1;315;15509;0;2;0;1624;0;0;0;0;3;0;940;0;0;0;0;4;0;1267;0;0;0;0;5;0;0;0;0;0;0;0;0;6;0;2630;2;0;0;0;0;0;7;0;1567;0;0;0;0;8;0;1582;0;0;0;0;9;0;803;0;0;0;0
27.11.20;20:05:00;1;373;15483;0;2;0;1624;0;0;0;0;3;0;940;0;0;0;0;4;0;1267;0;0;0;0;5;0;0;0;0;0;0;0;0;6;0;2630;2;0;0;0;0;0;7;0;1567;0;0;0;0;8;0;1582;0;0;0;0;9;0;803;0;0;0;0
27.11.20;20:00:00;1;315;15454;0;2;0;1624;0;0;0;0;3;0;940;0;0;0;0;4;0;1267;0;0;0;0;5;0;0;0;0;0;0;0;0;6;0;2630;2;0;0;0;0;0;7;0;1567;0;0;0;0;8;0;1582;0;0;0;0;9;0;803;0;0;0;0
27.11.20;19:55:00;1;314;15427;0;2;0;1624;0;0;0;0;3;0;940;0;0;0;0;4;0;1267;0;0;0;0;5;0;0;0;0;0;0;0;0;6;0;2630;2;0;0;0;0;0;7;0;1567;0;0;0;0;8;0;1582;0;0;0;0;9;0;803;0;0;0;0
27.11.20;19:50:00;1;317;15401;0;2;0;1624;0;0;0;0;3;0;940;0;0;0;0;4;0;1267;0;0;0;0;5;0;0;0;0;0;0;0;0;6;0;2630;2;0;0;0;0;0;7;0;1567;0;0;0;0;8;0;1582;0;0;0;0;9;0;803;0;0;0;0
27.11.20;19:45:00;1;320;15374;0;2;0;1624;0;0;0;0;3;0;940;0;0;0;0;4;0;1267;0;0;0;0;5;0;0;0;0;0;0;0;0;6;0;2630;2;0;0;0;0;0;7;0;1567;0;0;0;0;8;0;1582;0;0;0;0;9;0;803;0;0;0;0
27.11.20;19:40:00;1;280;15348;0;2;0;1624;0;0;0;0;3;0;940;0;0;0;0;4;0;1267;0;0;0;0;5;0;0;0;0;0;0;0;0;6;0;2630;2;0;0;0;0;0;7;0;1567;0;0;0;0;8;0;1582;0;0;0;0;9;0;803;0;0;0;0
27.11.20;19:35:00;1;316;15324;0;2;0;1624;0;0;0;0;3;0;940;0;0;0;0;4;0;1267;0;0;0;0;5;0;0;0;0;0;0;0;0;6;0;2630;0;0;0;0;0;0;7;0;1567;0;0;0;0;8;0;1582;0;0;0;0;9;0;803;0;0;0;0
27.11.20;19:30:00;1;296;15298;0;2;0;1624;0;0;0;0;3;0;940;0;0;0;0;4;0;1267;0;0;0;0;5;0;0;0;0;0;0;0;0;6;0;2630;2;0;0;0;0;0;7;0;1567;0;0;0;0;8;0;1582;0;0;0;0;9;0;803;0;0;0;0
27.11.20;19:25:00;1;609;15273;0;2;0;1624;0;0;0;0;3;0;940;0;0;0;0;4;0;1267;0;0;0;0;5;0;0;0;0;0;0;0;0;6;0;2630;2;0;0;0;0;0;7;0;1567;0;0;0;0;8;0;1582;0;0;0;0;9;0;803;0;0;0;0
27.11.20;19:20:00;1;885;15219;0;2;0;1624;0;0;0;0;3;0;940;0;0;0;0;4;0;1267;0;0;0;0;5;0;0;0;0;0;0;0;0;6;0;2630;2;0;0;0;0;0;7;0;1567;0;0;0;0;8;0;1582;0;0;0;0;9;0;803;0;0;0;0
27.11.20;19:15:00;1;906;15145;0;2;0;1624;0;0;0;0;3;0;940;0;0;0;0;4;0;1267;0;0;0;0;5;0;0;0;0;0;0;0;0;6;0;2630;2;0;0;0;0;0;7;0;1567;0;0;0;0;8;0;1582;0;0;0;0;9;0;803;0;0;0;0
27.11.20;19:10:00;1;886;15069;0;2;0;1624;0;0;0;0;3;0;940;0;0;0;0;4;0;1267;0;0;0;0;5;0;0;0;0;0;0;0;0;6;0;2630;2;0;0;0;0;0;7;0;1567;0;0;0;0;8;0;1582;0;0;0;0;9;0;803;0;0;0;0
27.11.20;19:05:00;1;863;14997;0;2;0;1624;0;0;0;0;3;0;940;0;0;0;0;4;0;1267;0;0;0;0;5;0;0;0;0;0;0;0;0;6;0;2630;2;0;0;0;0;0;7;0;1567;0;0;0;0;8;0;1582;0;0;0;0;9;0;803;0;0;0;0
27.11.20;19:00:00;1;893;14923;0;2;0;1624;0;0;0;0;3;0;940;0;0;0;0;4;0;1267;0;0;0;0;5;0;0;0;0;0;0;0;0;6;0;2630;2;0;0;0;0;0;7;0;1567;0;0;0;0;8;0;1582;0;0;0;0;9;0;803;0;0;0;0
27.11.20;18:55:00;1;928;14848;0;2;0;1624;0;0;0;0;3;0;940;0;0;0;0;4;0;1267;0;0;0;0;5;0;0;0;0;0;0;0;0;6;0;2630;2;0;0;0;0;0;7;0;1567;0;0;0;0;8;0;1582;0;0;0;0;9;0;803;0;0;0;0
27.11.20;18:50:00;1;909;14771;0;2;0;1624;0;0;0;0;3;0;940;0;0;0;0;4;0;1267;0;0;0;0;5;0;0;0;0;0;0;0;0;6;0;2630;2;0;0;0;0;0;7;0;1567;0;0;0;0;8;0;1582;0;0;0;0;9;0;803;0;0;0;0
27.11.20;18:45:00;1;1167;14695;0;2;0;1624;0;0;0;0;3;0;940;0;0;0;0;4;0;1267;0;0;0;0;5;0;0;0;0;0;0;0;0;6;0;2630;2;0;0;0;0;0;7;0;1567;0;0;0;0;8;0;1582;0;0;0;0;9;0;803;0;0;0;0
27.11.20;18:40:00;1;1349;14577;0;2;0;1624;0;0;0;0;3;0;940;0;0;0;0;4;0;1267;0;0;0;0;5;0;0;0;0;0;0;0;0;6;0;2630;2;0;0;0;0;0;7;0;1567;0;0;0;0;8;0;1582;0;0;0;0;9;0;803;0;0;0;0
27.11.20;18:35:00;1;907;14471;0;2;0;1624;0;0;0;0;3;0;940;0;0;0;0;4;0;1267;0;0;0;0;5;0;0;0;0;0;0;0;0;6;0;2630;2;0;0;0;0;0;7;0;1567;0;0;0;0;8;0;1582;0;0;0;0;9;0;803;0;0;0;0
27.11.20;18:30:00;1;1052;14394;0;2;0;1624;0;0;0;0;3;0;940;0;0;0;0;4;0;1267;0;0;0;0;5;0;0;0;0;0;0;0;0;6;0;2630;2;0;0;0;0;0;7;0;1567;0;0;0;0;8;0;1582;0;0;0;0;9;0;803;0;0;0;0
27.11.20;18:25:00;1;862;14314;0;2;0;1624;0;0;0;0;3;0;940;0;0;0;0;4;0;1267;0;0;0;0;5;0;0;0;0;0;0;0;0;6;0;2630;2;0;0;0;0;0;7;0;1567;0;0;0;0;8;0;1582;0;0;0;0;9;0;803;0;0;0;0
27.11.20;18:20:00;1;859;14243;0;2;0;1624;0;0;0;0;3;0;940;0;0;0;0;4;0;1267;0;0;0;0;5;0;0;0;0;0;0;0;0;6;0;2630;2;0;0;0;0;0;7;0;1567;0;0;0;0;8;0;1582;0;0;0;0;9;0;803;0;0;0;0
27.11.20;18:15:00;1;883;14171;0;2;0;1624;0;0;0;0;3;0;940;0;0;0;0;4;0;1267;0;0;0;0;5;0;0;0;0;0;0;0;0;6;0;2630;2;0;0;0;0;0;7;0;1567;0;0;0;0;8;0;1582;0;0;0;0;9;0;803;0;0;0;0
27.11.20;18:10:00;1;765;14099;0;2;0;1624;0;0;0;0;3;0;940;0;0;0;0;4;0;1267;0;0;0;0;5;0;0;0;0;0;0;0;0;6;0;2630;2;0;0;0;0;0;7;0;1567;0;0;0;0;8;0;1582;0;0;0;0;9;0;803;0;0;0;0
27.11.20;18:05:00;1;872;14036;0;2;0;1624;0;0;0;0;3;0;940;0;0;0;0;4;0;1267;0;0;0;0;5;0;0;0;0;0;0;0;0;6;0;2630;2;0;0;0;0;0;7;0;1567;0;0;0;0;8;0;1582;0;0;0;0;9;0;803;0;0;0;0
27.11.20;18:00:00;1;2432;13963;0;2;0;1624;0;0;0;0;3;0;940;0;0;0;0;4;0;1267;0;0;0;0;5;0;0;0;0;0;0;0;0;6;0;2630;2;0;0;0;0;0;7;0;1567;0;0;0;0;8;0;1582;0;0;0;0;9;0;803;0;0;0;0
27.11.20;17:55:00;1;2957;13739;0;2;0;1624;0;0;0;0;3;0;940;0;0;0;0;4;0;1267;0;0;0;0;5;0;0;0;0;0;0;0;0;6;0;2630;2;0;0;0;0;0;7;0;1567;0;0;0;0;8;0;1582;0;0;0;0;9;0;803;0;0;0;0
27.11.20;17:50:00;1;2936;13493;0;2;0;1624;0;0;0;0;3;0;940;0;0;0;0;4;0;1267;0;0;0;0;5;0;0;0;0;0;0;0;0;6;0;2630;2;0;0;0;0;0;7;0;1567;0;0;0;0;8;0;1582;0;0;0;0;9;0;803;0;0;0;0
27.11.20;17:45:00;1;2940;13247;0;2;0;1624;0;0;0;0;3;0;940;0;0;0;0;4;0;1267;0;0;0;0;5;0;0;0;0;0;0;0;0;6;0;2630;2;0;0;0;0;0;7;0;1567;0;0;0;0;8;0;1582;0;0;0;0;9;0;803;0;0;0;0
27.11.20;17:40:00;1;2862;13004;0;2;0;1624;0;0;0;0;3;0;940;0;0;0;0;4;0;1267;0;0;0;0;5;0;0;0;0;0;0;0;0;6;0;2630;2;0;0;0;0;0;7;0;1567;0;0;0;0;8;0;1582;0;0;0;0;9;0;803;0;0;0;0
27.11.20;17:35:00;1;4262;12745;0;2;0;1624;0;0;0;0;3;0;940;0;0;0;0;4;0;1267;0;0;0;0;5;0;0;0;0;0;0;0;0;6;0;2630;2;0;0;0;0;0;7;0;1567;0;0;0;0;8;0;1582;0;0;0;0;9;0;803;0;0;0;0
27.11.20;17:30:00;1;3886;12387;0;2;0;1624;0;0;0;0;3;0;940;0;0;0;0;4;0;1267;0;0;0;0;5;0;0;0;0;0;0;0;0;6;0;2630;2;0;0;0;0;0;7;0;1567;0;0;0;0;8;0;1582;0;0;0;0;9;0;803;0;0;0;0
27.11.20;17:25:00;1;3356;12081;0;2;0;1624;0;0;0;0;3;0;940;0;0;0;0;4;0;1267;0;0;0;0;5;0;0;0;0;0;0;0;0;6;0;2630;2;0;0;0;0;0;7;0;1567;0;0;0;0;8;0;1582;0;0;0;0;9;0;803;0;0;0;0
27.11.20;17:20:00;1;2453;11801;0;2;0;1624;0;0;0;0;3;0;940;0;0;0;0;4;0;1267;0;0;0;0;5;0;0;0;0;0;0;0;0;6;0;2630;2;0;0;0;0;0;7;0;1567;0;0;0;0;8;0;1582;0;0;0;0;9;0;803;0;0;0;0
27.11.20;17:10:00;1;1430;11692;0;2;0;1624;0;0;0;0;3;0;940;0;0;0;0;4;0;1267;0;0;0;0;5;0;0;0;0;0;0;0;0;6;0;2630;2;0;0;0;0;0;7;0;1567;0;0;0;0;8;0;1582;0;0;0;0;9;0;803;0;0;0;0
27.11.20;17:05:00;1;1470;11582;0;2;0;1624;0;0;0;0;3;0;940;0;0;0;0;4;0;1267;0;0;0;0;5;0;0;0;0;0;0;0;0;6;0;2630;2;0;0;0;0;0;7;0;1567;0;0;0;0;8;0;1582;0;0;0;0;9;0;803;0;0;0;0
27.11.20;17:00:00;1;1254;11463;0;2;0;1624;0;0;0;0;3;0;940;0;0;0;0;4;0;1267;0;0;0;0;5;0;0;0;0;0;0;0;0;6;0;2630;2;0;0;0;0;0;7;0;1567;0;0;0;0;8;0;1582;0;0;0;0;9;0;803;0;0;0;0
27.11.20;16:55:00;1;710;11356;0;2;0;1624;0;0;0;0;3;0;940;0;0;0;0;4;0;1267;0;0;0;0;5;0;0;0;0;0;0;0;0;6;0;2630;2;0;0;0;0;0;7;0;1567;0;0;0;0;8;0;1582;0;0;0;0;9;0;803;0;0;0;0
27.11.20;16:50:00;1;488;11288;0;2;0;1624;0;0;0;0;3;0;940;0;0;0;0;4;0;1267;0;0;0;0;5;0;0;0;0;0;0;0;0;6;0;2630;2;0;0;0;0;0;7;0;1567;0;0;0;0;8;0;1582;0;0;0;0;9;0;803;0;0;0;0
27.11.20;16:45:00;1;348;11245;0;2;0;1624;0;0;0;0;3;0;940;0;0;0;0;4;0;1267;0;0;0;0;5;0;0;0;0;0;0;0;0;6;0;2630;2;0;0;0;0;0;7;0;1567;0;0;0;0;8;0;1582;0;0;0;0;9;0;803;0;0;0;0
27.11.20;16:40:00;1;428;11215;0;2;0;1624;0;0;0;0;3;0;940;0;0;0;0;4;0;1267;0;0;0;0;5;0;0;0;0;0;0;0;0;6;0;2630;2;0;0;0;0;0;7;0;1567;0;0;0;0;8;0;1582;0;0;0;0;9;0;803;0;0;0;0
27.11.20;16:35:00;1;374;11179;0;2;0;1624;0;0;130;4;3;0;940;2;0;277;11;4;0;1267;0;0;0;0;5;0;0;0;0;0;0;0;0;6;0;2630;2;0;0;0;0;0;7;0;1567;0;0;0;0;8;0;1582;0;0;0;0;9;0;803;0;0;0;0
27.11.20;16:30:00;1;326;11148;0;2;0;1624;6;0;290;8;3;0;940;6;0;315;11;4;0;1267;0;0;30;2;5;0;0;0;0;0;0;0;0;6;0;2630;2;0;0;0;0;0;7;0;1567;0;0;0;0;8;0;1582;0;0;0;0;9;0;803;0;0;0;0
27.11.20;16:25:00;1;396;11121;0;2;0;1624;6;0;317;8;3;0;940;6;0;377;12;4;0;1267;2;0;88;6;5;0;0;0;0;0;0;0;0;6;0;2630;2;0;0;0;0;2;7;0;1567;0;0;0;0;8;0;1582;0;0;0;0;9;0;803;0;0;0;0
27.11.20;16:20:00;1;2442;11089;0;2;0;1624;6;0;341;8;3;0;940;6;0;403;12;4;0;1267;1;0;111;6;5;0;0;0;0;0;0;0;0;6;0;2630;1;5;2;162;317;17;7;0;1567;0;0;0;0;8;0;1582;0;0;0;0;9;0;803;0;0;127;3
27.11.20;16:15:00;1;1318;10886;0;2;0;1624;6;0;362;8;3;0;940;6;0;424;12;4;0;1267;1;0;137;6;5;0;0;0;0;0;0;0;0;6;0;2630;23;6;3;206;510;18;7;0;1567;11;0;268;12;8;0;1582;6;0;273;11;9;0;803;6;0;293;8
27.11.20;16:10:00;1;429;10781;0;2;0;1624;6;0;376;8;3;0;940;6;3;434;12;4;0;1267;1;0;156;6;5;0;0;0;0;0;0;0;0;6;0;2630;23;6;4;181;538;19;7;0;1567;6;0;304;12;8;0;1582;6;0;311;11;9;0;803;6;0;323;8
27.11.20;16:05:00;1;419;10746;0;2;0;1624;6;0;388;9;3;0;940;6;1;464;12;4;0;1267;1;0;181;7;5;0;0;0;0;0;0;0;0;6;0;2630;23;6;4;181;562;19;7;0;1567;6;0;351;12;8;0;1582;6;0;358;11;9;0;803;6;0;378;8
27.11.20;16:00:00;1;1257;10712;0;2;0;1624;6;0;398;9;3;0;940;3;1;462;12;4;0;1267;1;0;200;7;5;0;0;0;0;0;0;0;0;6;0;2630;23;4;2;261;578;20;7;0;1567;6;0;396;12;8;0;1582;6;0;403;12;9;0;803;6;0;411;8
27.11.20;15:55:00;1;530;10636;0;2;2;1624;6;4;401;9;3;1;940;6;3;501;12;4;0;1267;1;0;209;7;5;0;0;0;0;0;0;0;0;6;0;2630;23;8;3;394;591;20;7;0;1567;6;0;411;12;8;0;1582;6;0;417;12;9;0;803;6;0;447;8
27.11.20;15:50:00;1;364;10588;0;2;1;1624;6;4;407;9;3;2;940;6;4;510;12;4;0;1267;3;0;223;8;5;0;0;0;0;0;0;0;0;6;8;2630;23;7;7;522;574;21;7;0;1567;6;0;427;12;8;0;1582;6;0;433;12;9;0;803;6;0;467;8
27.11.20;15:45:00;1;412;10555;0;2;2;1624;6;6;416;9;3;0;940;6;4;521;12;4;0;1267;3;0;230;8;5;0;0;0;0;0;0;0;0;6;60;2629;4;30;37;478;453;22;7;0;1567;6;1;451;13;8;0;1582;6;0;474;12;9;0;803;6;1;498;8
27.11.20;15:40:00;1;476;10522;0;2;4;1624;6;7;418;9;3;1;940;6;5;527;12;4;1;1267;3;1;199;8;5;0;0;0;0;0;0;0;0;6;71;2624;4;25;29;478;453;22;7;0;1567;4;1;459;13;8;0;1582;4;1;462;12;9;0;803;6;1;508;8
27.11.20;15:35:00;1;428;10484;0;2;10;1624;6;17;408;9;3;0;940;6;0;555;12;4;2;1267;3;2;199;8;5;0;0;0;0;0;0;0;0;6;79;2618;4;31;33;478;453;22;7;3;1567;3;10;428;13;8;1;1582;3;8;451;12;9;4;803;4;5;496;8
27.11.20;15:30:00;1;438;10448;0;2;4;1623;6;9;423;10;3;2;940;4;6;535;12;4;3;1267;3;3;199;8;5;0;0;0;0;0;0;0;0;6;87;2611;4;29;34;477;453;22;7;3;1566;6;7;401;10;8;2;1582;6;7;487;13;9;2;802;3;8;513;8
27.11.20;15:25:00;1;490;10411;0;2;55;1622;4;79;366;10;3;5;940;6;10;545;12;4;18;1267;3;18;198;8;5;0;0;0;0;0;0;0;0;6;111;2603;4;59;69;478;453;22;7;31;1566;6;44;406;13;8;27;1582;6;44;413;13;9;0;802;6;0;288;4
27.11.20;15:20:00;1;472;10370;0;2;65;1618;4;89;381;10;3;6;939;6;11;549;12;4;26;1265;3;28;198;8;5;0;0;0;0;0;0;0;0;6;127;2594;4;65;71;477;453;22;7;46;1564;4;81;403;13;8;50;1580;4;81;404;13;9;3;802;6;8;559;9
27.11.20;15:15:00;1;511;10330;0;2;77;1612;4;102;377;10;3;6;939;6;10;557;13;4;35;1263;3;36;198;8;5;0;0;0;0;0;0;0;0;6;139;2583;4;56;62;478;453;22;7;62;1560;4;93;437;13;8;62;1576;4;92;423;13;9;4;802;6;7;566;9
27.11.20;15:10:00;1;861;10288;0;2;78;1606;4;102;377;10;3;6;938;6;11;553;13;4;37;1260;3;38;198;8;5;0;0;0;0;0;0;0;0;6;145;2572;4;61;65;478;453;22;7;56;1555;4;83;365;13;8;59;1571;4;84;367;13;9;5;801;6;8;561;9
27.11.20;15:05:00;1;2329;10211;0;2;77;1599;4;103;377;10;3;6;938;6;10;556;13;4;39;1257;3;41;198;8;5;0;0;0;0;0;0;0;0;6;142;2559;4;69;77;478;453;22;7;45;1550;4;74;353;14;8;48;1566;4;75;362;13;9;10;801;4;18;512;9
27.11.20;15:00:00;1;2321;10018;0;2;83;1593;4;108;368;10;3;6;937;4;11;553;13;4;54;1254;3;57;198;8;5;0;0;0;0;0;0;0;0;6;146;2548;4;81;86;478;453;21;7;58;1547;4;84;429;14;8;58;1562;4;79;367;13;9;8;800;3;15;535;9
27.11.20;14:55:00;1;2360;9821;0;2;98;1586;4;121;377;10;3;8;937;3;13;557;13;4;53;1249;3;55;198;8;5;0;0;0;0;0;0;0;0;6;164;2535;4;84;85;478;453;21;7;75;1542;4;95;472;14;8;76;1557;4;103;434;13;9;13;799;6;20;538;9
27.11.20;14:50:00;1;1053;9624;0;2;106;1578;4;131;389;11;3;19;936;6;30;544;13;4;68;1245;3;71;198;8;5;0;0;0;0;0;0;0;0;6;178;2522;4;86;87;478;453;21;7;83;1536;4;109;441;14;8;76;1551;4;110;443;13;9;13;798;6;21;541;9
27.11.20;14:45:00;1;323;9540;0;2;125;1569;4;152;377;11;3;70;934;4;105;468;14;4;79;1239;3;82;199;8;5;0;0;0;0;0;0;0;0;6;199;2507;4;92;95;478;453;21;7;86;1529;4;117;444;14;8;88;1544;4;120;446;13;9;14;797;6;21;541;9
27.11.20;14:40:00;1;370;9514;0;2;142;1559;4;170;388;11;3;82;929;4;115;465;14;4;98;1232;3;102;219;8;5;0;0;0;0;0;0;0;0;6;221;2490;4;104;108;478;453;21;7;92;1522;4;131;454;14;8;103;1537;4;136;457;13;9;9;796;6;12;572;9
27.11.20;14:35:00;1;418;9482;0;2;167;1547;4;196;392;11;3;98;922;4;134;485;14;4;123;1224;5;128;229;8;5;0;0;0;0;0;0;0;0;6;254;2471;4;139;144;477;453;21;7;118;1514;4;155;434;14;8;129;1529;4;156;426;13;9;60;796;6;82;414;10
27.11.20;14:30:00;1;410;9448;0;2;180;1533;4;210;395;11;3;106;914;4;144;510;14;4;140;1214;5;145;232;8;5;0;0;0;0;0;0;0;0;6;279;2450;4;131;136;478;453;21;7;144;1504;4;178;433;14;8;154;1518;4;184;450;13;9;77;791;4;102;476;10
27.11.20;14:25:00;1;803;9414;0;2;176;1518;4;205;400;11;3;102;905;4;140;512;14;4;128;1202;5;133;233;8;5;0;0;0;0;0;0;0;0;6;266;2426;4;138;152;478;480;21;7;160;1492;4;202;450;14;8;172;1505;4;203;463;13;9;88;784;4;113;486;10
27.11.20;14:20:00;1;2387;9375;0;2;190;1503;4;220;390;11;3;111;896;4;150;512;14;4;143;1191;5;149;232;8;5;0;0;0;0;0;0;0;0;6;307;2404;4;143;169;478;563;21;7;210;1479;4;235;468;14;8;201;1491;4;237;473;13;9;109;777;4;136;518;10
27.11.20;14:15:00;1;2674;9174;0;2;226;1488;4;257;388;11;3;135;887;4;173;506;14;4;167;1179;5;174;231;8;5;0;0;0;0;0;0;0;0;6;361;2378;4;167;174;582;561;21;7;202;1462;4;237;441;14;8;209;1474;4;242;458;13;9;108;768;4;137;516;10
27.11.20;14:10:00;1;2735;8950;0;2;273;1469;4;304;390;11;3;169;876;4;206;504;14;4;221;1166;5;230;234;8;5;0;0;0;0;0;0;0;0;6;452;2347;4;224;233;589;568;21;7;274;1445;4;317;472;14;8;281;1457;4;308;479;13;9;148;759;4;176;527;10
27.11.20;14:05:00;1;2096;8725;0;2;276;1446;4;307;397;11;3;168;862;4;207;508;14;4;219;1147;5;228;236;8;5;0;0;0;0;0;0;0;0;6;450;2310;4;220;232;597;566;21;7;305;1422;4;346;481;14;8;310;1433;4;350;487;13;9;168;746;4;197;540;10
27.11.20;14:00:00;1;807;8547;0;2;301;1423;4;335;403;11;3;186;848;4;226;504;14;4;246;1129;5;256;237;8;5;0;0;0;0;0;0;0;0;6;487;2272;4;224;229;595;576;21;7;334;1396;4;367;481;14;8;340;1407;4;372;483;13;9;175;732;4;205;546;10
27.11.20;13:55:00;1;737;8482;0;2;338;1398;4;373;411;11;3;210;832;4;250;519;14;4;279;1108;5;291;240;8;5;0;0;0;0;0;0;0;0;6;557;2230;4;279;289;602;575;21;7;347;1368;4;383;474;14;8;336;1379;4;377;498;13;9;185;718;4;217;538;10
27.11.20;13:50:00;1;741;8417;0;2;327;1370;4;360;401;11;3;201;815;4;241;525;14;4;273;1085;5;285;237;8;5;0;0;0;0;0;0;0;0;6;548;2184;4;305;312;597;575;21;7;353;1339;4;393;497;14;8;361;1351;4;398;487;13;9;196;702;4;227;533;10
27.11.20;13:45:00;1;818;8356;0;2;311;1343;4;342;397;11;3;189;798;4;228;531;14;4;256;1062;5;267;239;8;5;0;0;0;0;0;0;0;0;6;511;2139;4;267;266;588;580;21;7;306;1310;4;343;488;14;8;314;1321;4;343;487;13;9;166;686;4;196;530;10
27.11.20;13:40:00;1;806;8288;0;2;363;1317;4;398;410;11;3;225;782;4;266;508;14;4;303;1041;5;315;244;8;5;0;0;0;0;0;0;0;0;6;585;2096;4;302;307;598;573;21;7;372;1285;4;416;487;14;8;381;1294;4;419;487;13;9;203;672;4;235;531;10
27.11.20;13:35:00;1;1049;8222;0;2;345;1287;4;378;409;11;3;215;763;4;252;515;14;4;284;1016;5;295;237;8;5;0;0;0;0;0;0;0;0;6;552;2047;4;288;294;598;574;21;7;344;1253;4;382;494;14;8;345;1263;4;386;485;13;9;191;655;4;221;531;10
27.11.20;13:30:00;1;2826;8152;0;2;374;1258;4;411;414;11;3;231;745;4;274;513;14;4;312;992;5;325;240;8;5;0;0;0;0;0;0;0;0;6;588;2001;4;308;318;598;578;21;7;354;1225;4;384;472;14;8;341;1234;4;382;486;13;9;156;639;4;183;439;8
27.11.20;13:25:00;1;3108;7906;0;2;353;1226;4;387;406;11;3;221;726;4;262;523;14;4;295;966;5;308;237;8;5;0;0;0;0;0;0;0;0;6;598;1951;4;312;324;598;580;21;7;369;1195;4;409;489;14;8;378;1205;4;417;489;13;9;206;624;4;236;533;10
27.11.20;13:20:00;1;4165;7645;0;2;308;1197;4;343;398;11;3;189;708;4;226;510;14;4;254;941;5;264;238;8;5;0;0;0;0;0;0;0;0;6;513;1902;4;265;273;590;579;21;7;285;1164;4;322;481;14;8;290;1174;4;337;477;13;9;158;606;4;186;533;10
27.11.20;13:15:00;1;2632;7321;0;2;305;1171;4;338;398;11;3;189;692;4;227;510;14;4;254;920;5;264;242;8;5;0;0;0;0;0;0;0;0;6;509;1859;4;266;274;592;580;21;7;290;1141;4;328;494;13;8;285;1150;4;328;499;13;9;166;593;4;189;530;10